Location: Sears
(37.7625°N, 100.1060°W)
Time: 14:43:23
(UTC+00:00)

Envisat - Pass Details

Date: 02 August 2021
Orbit: 764 x 766 km, 98.2° (Epoch: 20 September)

Event Time Altitude Azimuth Distance (km) Brightness Sun altitude
Rises 10:49:33 0° 30° (NNE) 3,238 7.5 -10.5°
Reaches altitude 10° 10:52:34 10° 49° (NE) 2,306 7.0 -10.0°
Maximum altitude 10:56:04 19° 93° (E) 1,782 5.7 -9.5°
Drops below altitude 10° 10:59:33 10° 137° (SE) 2,295 5.6 -8.9°
Sets 11:02:31 0° 155° (SSE) 3,215 6.2 -8.4°
